Satellite: NOAA 17
Catalog number: 27453
Epoch time:      103030.86596568
Element set:     288 
Inclination:       98.7611 deg
RA of node:       102.1739 deg
Eccentricity:    0.0012573
Arg of perigee:    53.2034 deg
Mean anomaly:     307.0293 deg
Mean motion:   14.23281356 rev/day
Decay rate:    2.2500E-006 rev/day^2
Epoch rev:            3130
Checksum:              285

Satellite: HOT BIRD 6
Catalog number: 27499
Epoch time:      103013.80550721
Element set:     66 
Inclination:        0.0928 deg
RA of node:        32.8693 deg
Eccentricity:    0.0008090
Arg of perigee:   290.3889 deg
Mean anomaly:      92.5421 deg
Mean motion:    1.00271722 rev/day
Decay rate:    1.0600E-006 rev/day^2
Epoch rev:             147
Checksum:              269

Satellite: RUBIN 2
Catalog number: 27605
Epoch time:      103030.88890430
Element set:     42 
Inclination:       64.5543 deg
RA of node:       253.9631 deg
Eccentricity:    0.0029543
Arg of perigee:   117.3033 deg
Mean anomaly:     243.1084 deg
Mean motion:   14.71400027 rev/day
Decay rate:    4.3199E-006 rev/day^2
Epoch rev:             606
Checksum:              271

Satellite: STS-107     
Catalog number: 27647
Epoch time:      103031.54277778
Element set:     43 
Inclination:       39.0187 deg
RA of node:       129.6545 deg
Eccentricity:    0.0009745
Arg of perigee:   137.1831 deg
Mean anomaly:      91.3435 deg
Mean motion:   16.01474313 rev/day
Decay rate:    2.8350E-004 rev/day^2
Epoch rev:             239
Checksum:              305


Read previous mail | Read next mail


 12.06.2026 12:03:03lGo back Go up